Weather History for Rabat-Sale, Morocco

Change the Weather History Date:

Thursday, September 27, 2012

  Actual Average Record
Temperature  
Mean Temperature 69 °F -  
Max Temperature 79 °F 73 °F 86 °F (2013)
Min Temperature 59 °F 57 °F 55 °F (1999)
Cooling Degree Days 4    
Growing Degree Days 19 (Base 50)    
Moisture  
Dew Point 65 °F    
Average Humidity 80    
Maximum Humidity 94    
Minimum Humidity 46    
Precipitation  
Precipitation 0.04 in 0.05 in - ()
Sea Level Pressure  
Sea Level Pressure 29.80 in    
Wind  
Wind Speed 6 mph ()    
Max Wind Speed 20 mph    
Max Gust Speed -    
Visibility 4.2 miles    
Events Rain    
Averages and records for this station are not official NWS values.
T = Trace of Precipitation, MM = Missing Value Source: Averaged Metar Reports

Daily Weather History Graph

Daily Weather History Graph

Search for Another Location

Airport:

Trip Planner

Search our weather history database for the weather conditions in past years. The results will help you decide how hot, cold, wet, or windy it might be!

Date:

Astronomy

Sep. 27, 2012 Rise Set
Actual Time 7:18 AM WEST 7:16 PM WEST
Civil Twilight 6:53 AM WEST 7:41 PM WEST
Nautical Twilight 6:24 AM WEST 8:10 PM WEST
Astronomical Twilight 5:55 AM WEST 8:39 PM WEST
Moon 5:36 PM WEST (9/27) 4:39 AM WEST (9/27)
Length of Visible Light 12h 47m
Length of Day
11h 57m
Waxing Gibbous, 93% of the Moon is Illuminated
Sep 27
Waxing Gibbous
Sep 30
Full
Oct 8
Last Quarter
Oct 15
New
Oct 22
First Quarter

Hourly Weather History & Observations

Time (WEST) Temp. Dew Point Humidity Pressure Visibility Wind Dir Wind Speed Gust Speed Precip Events Conditions
12:00 AM 69.8 °F 64.4 °F 83% 29.83 in 5.0 mi Calm Calm - N/A   Mostly Cloudy
1:00 AM 69 °F 64 °F 77% 29.81 in 5 mi Calm Calm - -   Scattered Clouds
1:00 AM 68.0 °F 64.4 °F 88% 29.80 in 5.0 mi Calm Calm - N/A   Mostly Cloudy
2:00 AM 69.8 °F 64.4 °F 83% 29.80 in 5.0 mi Calm Calm - N/A   Mostly Cloudy
2:30 AM 68.0 °F 64.4 °F 88% 29.77 in 5.0 mi Calm Calm - N/A   Mostly Cloudy
3:00 AM 68.0 °F 64.4 °F 88% 29.74 in 3.1 mi Calm Calm - N/A   Mostly Cloudy
4:00 AM 68 °F 65 °F 85% 29.75 in 3 mi Calm Calm - - Rain Light Rain
4:00 AM 68.0 °F 64.4 °F 88% 29.74 in 3.1 mi Calm Calm - N/A   Mostly Cloudy
4:30 AM 68.0 °F 64.4 °F 88% 29.74 in 3.1 mi Calm Calm - N/A   Mostly Cloudy
5:00 AM 68.0 °F 64.4 °F 88% 29.74 in 3.1 mi Calm Calm - N/A   Mostly Cloudy
6:00 AM 69.8 °F 64.4 °F 83% 29.77 in 3.7 mi Calm Calm - N/A   Scattered Clouds
7:00 AM 71 °F 64 °F 72% 29.76 in 4 mi South 8.1 mph - -   Mostly Cloudy
7:00 AM 71.6 °F 64.4 °F 78% 29.77 in 3.7 mi South 8.1 mph - N/A   Scattered Clouds
8:30 AM 69.8 °F 66.2 °F 88% 29.77 in 3.1 mi South 6.9 mph - N/A Rain Light Rain Showers
9:00 AM 71.6 °F 66.2 °F 83% 29.77 in 5.0 mi South 9.2 mph - N/A Rain Light Rain
9:30 AM 73.4 °F 68.0 °F 83% 29.80 in 5.0 mi SW 9.2 mph - N/A Rain Light Rain
10:00 AM 73 °F 68 °F 80% 29.80 in 5 mi SW 8.1 mph - - Rain Light Rain
10:00 AM 73.4 °F 68.0 °F 83% 29.80 in 5.0 mi SW 8.1 mph - N/A Rain Light Rain
10:30 AM 73.4 °F 68.0 °F 83% 29.80 in 5.0 mi SW 8.1 mph - N/A   Scattered Clouds
11:00 AM 73.4 °F 62.6 °F 69% 29.80 in 5.0 mi SW 15.0 mph - N/A   Scattered Clouds
11:30 AM 73.4 °F 62.6 °F 69% 29.80 in - SW 17.3 mph - N/A   Unknown
12:00 PM 75.2 °F 64.4 °F 69% 29.80 in 5.0 mi SW 19.6 mph - N/A   Mostly Cloudy
12:30 PM 77.0 °F 62.6 °F 61% 29.80 in 5.0 mi SW 19.6 mph - N/A   Mostly Cloudy
1:00 PM 79 °F 62 °F 46% 29.79 in 5 mi WSW 17.3 mph - -   Partly Cloudy
1:00 PM 78.8 °F 62.6 °F 57% 29.80 in 5.0 mi WSW 17.3 mph - N/A   Mostly Cloudy
1:30 PM 77.0 °F 64.4 °F 65% 29.80 in 5.0 mi West 17.3 mph - N/A   Mostly Cloudy
2:00 PM 77.0 °F 62.6 °F 61% 29.77 in 5.0 mi WSW 13.8 mph - N/A   Mostly Cloudy
2:30 PM 77.0 °F 62.6 °F 61% 29.77 in 5.0 mi West 10.4 mph - N/A   Mostly Cloudy
3:00 PM 71.6 °F 66.2 °F 83% 29.77 in 5.0 mi West 12.7 mph - N/A   Mostly Cloudy
3:30 PM 73.4 °F 64.4 °F 73% 29.77 in 5.0 mi West 9.2 mph - N/A   Mostly Cloudy
4:00 PM 72 °F 65 °F 74% 29.79 in 5 mi WSW 11.5 mph - -   Partly Cloudy
4:00 PM 71.6 °F 66.2 °F 83% 29.80 in 5.0 mi WSW 11.5 mph - N/A   Mostly Cloudy
4:30 PM 73.4 °F 64.4 °F 73% 29.77 in 5.0 mi WSW 19.6 mph - N/A   Mostly Cloudy
5:00 PM 73.4 °F 64.4 °F 73% 29.80 in 5.0 mi SW 16.1 mph - N/A   Mostly Cloudy
5:30 PM 73.4 °F 64.4 °F 73% 29.80 in 5.0 mi WSW 16.1 mph - N/A   Mostly Cloudy
6:00 PM 71.6 °F 66.2 °F 83% 29.80 in 5.0 mi WSW 17.3 mph - N/A   Mostly Cloudy
6:30 PM 71.6 °F 66.2 °F 83% 29.80 in 5.0 mi WSW 10.4 mph - N/A   Mostly Cloudy
7:00 PM 70 °F 66 °F 84% 29.82 in 3 mi WSW 10.4 mph - - Rain Light Rain Showers
7:00 PM 69.8 °F 66.2 °F 88% 29.83 in 3.1 mi WSW 10.4 mph - N/A Rain Light Rain Showers
7:30 PM 69.8 °F 66.2 °F 88% 29.83 in 3.1 mi West 9.2 mph - N/A   Mostly Cloudy
8:00 PM 69.8 °F 66.2 °F 88% 29.83 in 3.1 mi WSW 10.4 mph - N/A   Mostly Cloudy
8:30 PM 69.8 °F 64.4 °F 83% 29.86 in 3.1 mi WSW 5.8 mph - N/A   Mostly Cloudy
9:00 PM 69.8 °F 66.2 °F 88% 29.86 in 3.1 mi West 5.8 mph - N/A Rain Light Rain Showers
9:30 PM 69.8 °F 66.2 °F 88% 29.86 in 3.1 mi SW 6.9 mph - N/A Rain Light Rain Showers
10:00 PM 68 °F 66 °F 90% 29.88 in 3 mi SW 4.6 mph - - Rain Light Rain Showers
10:00 PM 68.0 °F 66.2 °F 94% 29.89 in 3.1 mi SW 4.6 mph - N/A Rain Light Rain Showers
10:30 PM 68.0 °F 64.4 °F 88% 29.86 in 3.1 mi Calm Calm - N/A   Mostly Cloudy
11:00 PM 68.0 °F 66.2 °F 94% 29.89 in 3.1 mi Calm Calm - N/A   Mostly Cloudy
11:30 PM 68.0 °F 64.4 °F 88% 29.86 in 3.1 mi South 3.5 mph - N/A   Mostly Cloudy